Location: Burland Observatory
(39.4088°N, 105.4217°W)
Time: 17:47:27
(UTC-07:00)

SR - Visible Passes

Search period start: 24 January 2021 00:00
Search period end: 03 February 2021 00:00
Orbit: 575 x 880 km, 66.7° (Epoch: 24 January)

Date Brightness Start Highest point End Pass type
(mag) Time Alt. Az. Time Alt. Az. Time Alt. Az.
24 Jan ? 05:07:54 27° N 05:07:54 27° N 05:10:43 10° NNE visible
25 Jan ? 04:19:55 17° NNE 04:19:55 17° NNE 04:21:07 10° NNE visible
25 Jan ? 05:59:20 13° NW 05:59:20 13° NW 06:01:26 10° NNW visible
26 Jan ? 05:11:14 16° N 05:11:14 16° N 05:12:47 10° N visible
27 Jan ? 04:23:03 12° NNE 04:23:03 12° NNE 04:23:31 10° NNE visible
28 Jan ? 05:14:12 10° N 05:14:12 10° N 05:14:24 10° N visible
